GW7199 Weather Reports


time (UTC)temp
C
wind
direction
speed
KPH
gust
KPH
rain 1hr
cm
rain 24hr
cm
rain mn
cm
humidity
%
barometer
mb
20260906003831 27 296 0.0 1.6 0.00 0.00 0.00 79 1011.4
20260906003326 27 296 1.6 1.6 0.00 0.00 0.00 82 1011.5
20260906002822 27 296 1.6 1.6 0.00 0.00 0.00 82 1011.4
20260906002321 27 296 3.2 3.2 0.00 0.00 0.00 82 1011.5
20260906001817 27 69 0.0 0.0 0.00 0.00 0.00 80 1011.8
20260906001312 27 69 0.0 0.0 0.00 0.00 0.00 80 1011.9
20260906000807 27 69 0.0 0.0 0.00 0.00 0.00 78 1012.2
20260906000303 -17 0.0 0.0 0.00 0.00 0.00 1012.0
20260905235756 -17 0.0 0.0 0.00 0.00 0.00 1012.2
20260905235256 28 69 0.0 0.0 0.00 0.00 0.00 77 1012.4
20260905234752 28 69 0.0 0.0 0.00 0.00 0.00 77 1012.0
20260905234247 28 69 0.0 0.0 0.00 0.00 0.00 78 1012.3
20260905233742 29 69 0.0 0.0 0.00 0.00 0.00 77 1012.5
20260905233242 29 69 0.0 0.0 0.00 0.00 0.00 76 1012.2
20260905232736 30 69 0.0 0.0 0.00 0.00 0.00 75 1012.2
20260905232232 30 69 0.0 0.0 0.00 0.00 0.00 75 1011.9
20260905231727 -17 0.0 0.0 0.00 0.00 0.00 1012.2
20260905231223 31 68 0.0 0.0 0.00 0.00 0.00 66 1012.4
20260905230719 31 68 0.0 0.0 0.00 0.00 0.00 66 1012.4
20260905230216 31 68 0.0 0.0 0.00 0.00 0.00 66 1012.3
20260905225716 31 68 0.0 0.0 0.00 0.00 0.00 63 1012.0
20260905225211 31 68 0.0 0.0 0.00 0.00 0.00 60 1012.2
20260905224710 31 68 0.0 0.0 0.00 0.00 0.00 61 1011.9
20260905224206 31 68 0.0 0.0 0.00 0.00 0.00 60 1011.9
20260905223702 -17 0.0 0.0 0.00 0.00 0.00 1012.2
20260905223158 -17 0.0 0.0 0.00 0.00 0.00 1012.0
20260905222654 32 19 1.6 1.6 0.00 0.00 0.00 55 1011.9
20260905222154 32 19 1.6 1.6 0.00 0.00 0.00 55 1011.8
20260905221649 -17 0.0 0.0 0.00 0.00 0.00 1012.2
20260905221146 -17 0.0 0.0 0.00 0.00 0.00 1012.0
20260905220647 -17 0.0 0.0 0.00 0.00 0.00 1011.8
20260905220143 -17 0.0 0.0 0.00 0.00 0.00 1012.0
20260905215642 32 2 1.6 1.6 0.00 0.00 0.00 54 1011.9
20260905215138 32 2 1.6 1.6 0.00 0.00 0.00 54 1012.0
20260905214634 32 333 1.6 1.6 0.00 0.00 0.00 55 1012.0
20260905214129 33 23 4.8 4.8 0.00 0.00 0.00 54 1011.7
20260905213624 33 321 0.0 0.0 0.00 0.00 0.00 52 1011.9
20260905213119 33 321 3.2 3.2 0.00 0.00 0.00 52 1011.9
20260905212615 33 16 3.2 3.2 0.00 0.00 0.00 51 1012.0
20260905212114 33 334 3.2 4.8 0.00 0.00 0.00 51 1011.8
20260905211609 33 334 3.2 4.8 0.00 0.00 0.00 51 1012.0
20260905211105 -17 0.0 0.0 0.00 0.00 0.00 1011.7
20260905210601 -17 0.0 0.0 0.00 0.00 0.00 1012.2
20260905210055 33 29 4.8 4.8 0.00 0.00 0.00 50 1012.2
20260905205555 33 29 4.8 4.8 0.00 0.00 0.00 50 1012.2
20260905205054 33 66 3.2 4.8 0.00 0.00 0.00 51 1012.2
20260905204549 34 32 1.6 1.6 0.00 0.00 0.00 48 1012.2
20260905204044 35 312 1.6 3.2 0.00 0.00 0.00 48 1012.0
20260905203544 34 332 0.0 0.0 0.00 0.00 0.00 48 1012.3
20260905203039 34 329 4.8 4.8 0.00 0.00 0.00 48 1012.2
20260905202535 34 19 1.6 3.2 0.00 0.00 0.00 48 1012.5
20260905202030 34 353 3.2 3.2 0.00 0.00 0.00 49 1012.4
20260905201526 34 19 3.2 3.2 0.00 0.00 0.00 47 1012.8
20260905201025 35 27 0.0 0.0 0.00 0.00 0.00 47 1012.7
20260905200521 35 27 1.6 1.6 0.00 0.00 0.00 48 1012.7
20260905200021 35 299 3.2 3.2 0.00 0.00 0.00 46 1012.8
20260905195520 35 241 0.0 1.6 0.00 0.00 0.00 49 1012.7
20260905195016 35 315 3.2 3.2 0.00 0.00 0.00 46 1012.8
20260905194516 35 4 1.6 1.6 0.00 0.00 0.00 45 1013.0
20260905194015 35 250 0.0 0.0 0.00 0.00 0.00 49 1013.0
20260905193510 35 279 1.6 1.6 0.00 0.00 0.00 50 1013.0
20260905193005 35 80 1.6 3.2 0.00 0.00 0.00 45 1013.1
20260905192500 34 31 1.6 3.2 0.00 0.00 0.00 50 1013.2
20260905191956 35 47 1.6 3.2 0.00 0.00 0.00 48 1013.5
20260905191455 35 274 0.0 1.6 0.00 0.00 0.00 47 1013.2
20260905190954 34 63 0.0 1.6 0.00 0.00 0.00 49 1013.1
20260905190452 33 36 3.2 3.2 0.00 0.00 0.00 47 1013.3
20260905185951 35 326 4.8 4.8 0.00 0.00 0.00 47 1013.3
20260905185447 34 296 1.6 3.2 0.00 0.00 0.00 46 1013.5
20260905184945 35 331 1.6 6.4 0.00 0.00 0.00 44 1013.6
20260905184440 35 265 1.6 4.8 0.00 0.00 0.00 52 1013.5
20260905183938 35 298 3.2 4.8 0.00 0.00 0.00 44 1013.7
20260905183433 35 218 3.2 6.4 0.00 0.00 0.00 47 1013.5
20260905182929 35 153 3.2 6.4 0.00 0.00 0.00 51 1013.8
20260905182427 35 180 3.2 6.4 0.00 0.00 0.00 50 1014.0
20260905181923 35 202 0.0 1.6 0.00 0.00 0.00 44 1013.9
20260905181418 35 184 1.6 4.8 0.00 0.00 0.00 50 1014.0
20260905180917 35 186 4.8 6.4 0.00 0.00 0.00 48 1014.0
20260905180412 35 250 3.2 4.8 0.00 0.00 0.00 47 1014.0
20260905175912 34 148 0.0 1.6 0.00 0.00 0.00 44 1014.2
20260905175412 34 172 3.2 6.4 0.00 0.00 0.00 49 1014.1
20260905174907 34 186 3.2 4.8 0.00 0.00 0.00 53 1014.3
20260905174403 33 227 1.6 4.8 0.00 0.00 0.00 54 1014.2
20260905173858 33 146 4.8 6.4 0.00 0.00 0.00 47 1014.1
20260905173354 33 176 1.6 6.4 0.00 0.00 0.00 50 1014.2
20260905172849 33 221 3.2 6.4 0.00 0.00 0.00 50 1014.3
20260905172347 33 178 3.2 3.2 0.00 0.00 0.00 51 1014.5
20260905171843 32 277 3.2 4.8 0.00 0.00 0.00 52 1014.5
20260905171340 32 121 3.2 9.7 0.00 0.00 0.00 52 1014.5
20260905170836 32 156 3.2 4.8 0.00 0.00 0.00 52 1014.4
20260905170332 32 115 6.4 6.4 0.00 0.00 0.00 51 1014.9
20260905165831 32 181 1.6 3.2 0.00 0.00 0.00 47 1014.6
20260905165327 32 271 3.2 11.3 0.00 0.00 0.00 51 1014.7
20260905164826 32 125 3.2 3.2 0.00 0.00 0.00 49 1014.7
20260905164321 32 247 1.6 4.8 0.00 0.00 0.00 54 1014.9
20260905163817 32 136 3.2 4.8 0.00 0.00 0.00 51 1015.0
20260905163313 32 254 1.6 6.4 0.00 0.00 0.00 55 1014.8
20260905162809 32 232 4.8 6.4 0.00 0.00 0.00 59 1014.8
20260905162309 32 242 3.2 9.7 0.00 0.00 0.00 55 1014.7
20260905161803 32 157 3.2 6.4 0.00 0.00 0.00 54 1015.0
20260905161302 32 223 3.2 4.8 0.00 0.00 0.00 57 1014.8
20260905160801 31 162 3.2 4.8 0.00 0.00 0.00 57 1014.8
20260905160301 31 172 6.4 9.7 0.00 0.00 0.00 58 1014.7
20260905155756 31 201 3.2 4.8 0.00 0.00 0.00 58 1014.9
20260905155254 31 207 6.4 6.4 0.00 0.00 0.00 56 1015.1
20260905154749 31 152 3.2 4.8 0.00 0.00 0.00 57 1015.1
20260905154245 31 167 1.6 6.4 0.00 0.00 0.00 55 1015.2
20260905153740 30 184 3.2 9.7 0.00 0.00 0.00 59 1015.3
20260905153236 30 160 1.6 6.4 0.00 0.00 0.00 59 1015.5
20260905152731 30 139 3.2 4.8 0.00 0.00 0.00 61 1015.4
20260905152230 30 161 3.2 11.3 0.00 0.00 0.00 58 1015.5
20260905151730 30 138 6.4 9.7 0.00 0.00 0.00 60 1015.4
20260905151227 30 121 3.2 4.8 0.00 0.00 0.00 59 1015.5
20260905150726 29 156 4.8 4.8 0.00 0.00 0.00 61 1015.6
20260905150226 28 148 1.6 4.8 0.00 0.00 0.00 63 1015.4
20260905145723 27 129 6.4 6.4 0.00 0.00 0.00 66 1015.7
20260905145218 26 101 1.6 4.8 0.00 0.00 0.00 70 1015.5
20260905144717 26 115 6.4 9.7 0.00 0.00 0.00 68 1015.6
20260905144212 26 141 4.8 6.4 0.00 0.00 0.00 68 1015.6
20260905143711 27 133 1.6 6.4 0.00 0.00 0.00 70 1015.8
20260905143206 28 129 6.4 9.7 0.00 0.00 0.00 67 1015.7
20260905142704 28 112 3.2 17.7 0.00 0.00 0.00 68 1015.9
20260905142205 27 92 3.2 9.7 0.00 0.00 0.00 70 1016.1
20260905141700 27 177 3.2 4.8 0.00 0.00 0.00 72 1015.8
20260905141156 26 118 4.8 6.4 0.00 0.00 0.00 72 1015.8
20260905140651 26 102 4.8 4.8 0.00 0.00 0.00 75 1015.8
20260905140151 26 63 3.2 9.7 0.00 0.00 0.00 75 1016.0
20260905135646 25 126 8.0 11.3 0.00 0.00 0.00 76 1015.8
20260905135141 25 100 4.8 4.8 0.00 0.00 0.00 79 1015.8
20260905134636 25 70 3.2 4.8 0.00 0.00 0.00 78 1015.8
20260905134134 24 69 8.0 12.9 0.00 0.00 0.00 79 1015.8
20260905133630 23 76 6.4 9.7 0.00 0.00 0.00 81 1016.1
20260905133130 23 11 4.8 9.7 0.00 0.00 0.00 81 1016.2
20260905132630 22 50 6.4 11.3 0.00 0.00 0.00 83 1016.2
20260905132125 22 66 6.4 17.7 0.00 0.00 0.00 83 1016.2
20260905131620 22 28 11.3 16.1 0.00 0.00 0.00 83 1016.0
20260905131115 22 91 8.0 11.3 0.00 0.00 0.00 84 1015.9
20260905130615 22 65 9.7 14.5 0.00 0.00 0.00 83 1016.2
20260905130114 23 70 8.0 11.3 0.00 0.00 0.00 83 1016.1
20260905125609 23 88 8.0 11.3 0.00 0.00 0.00 82 1015.9
20260905125104 23 48 11.3 14.5 0.00 0.00 0.00 82 1015.8
20260905124601 23 43 8.0 14.5 0.00 0.00 0.00 82 1016.1
20260905124057 23 38 4.8 12.9 0.00 0.00 0.00 82 1016.2
20260905123551 23 26 3.2 4.8 0.00 0.00 0.00 82 1015.8
20260905123049 23 57 3.2 3.2 0.00 0.00 0.00 83 1015.5
20260905122548 23 86 3.2 4.8 0.00 0.00 0.00 83 1015.4
20260905122043 23 88 3.2 4.8 0.00 0.00 0.00 82 1015.4
20260905121544 23 59 3.2 4.8 0.00 0.00 0.00 82 1015.5
20260905121039 23 76 6.4 11.3 0.00 0.00 0.00 82 1015.5
20260905120538 23 90 4.8 11.3 0.00 0.00 0.00 82 1015.4
20260905120033 23 81 4.8 11.3 0.00 0.00 0.00 82 1015.4
20260905115532 23 68 4.8 6.4 0.00 0.00 0.00 82 1015.4
20260905115027 23 64 8.0 11.3 0.00 0.00 0.00 83 1015.1
20260905114526 23 64 3.2 9.7 0.00 0.00 0.00 83 1015.1
20260905114026 23 73 6.4 9.7 0.00 0.00 0.00 83 1015.1
20260905113521 23 36 4.8 9.7 0.00 0.00 0.00 85 1015.4
20260905113016 23 63 8.0 16.1 0.00 0.00 0.00 84 1014.8
20260905112511 23 57 6.4 11.3 0.00 0.00 0.00 88 1014.9
20260905112007 23 58 3.2 4.8 0.00 0.00 0.00 92 1015.0
20260905111501 23 76 1.6 4.8 0.00 0.00 0.00 95 1014.8
20260905110955 23 52 1.6 3.2 0.00 0.00 0.00 96 1014.9
20260905110455 23 89 4.8 11.3 0.00 0.00 0.00 95 1014.6
20260905105955 23 289 1.6 3.2 0.00 0.00 0.00 95 1014.3
20260905105455 23 288 0.0 1.6 0.00 0.00 0.00 95 1014.0
20260905104954 23 288 1.6 1.6 0.00 0.00 0.00 95 1013.9
20260905104451 23 288 1.6 1.6 0.00 0.00 0.00 95 1014.1
20260905103951 23 292 3.2 3.2 0.00 0.00 0.00 95 1014.0
20260905103446 23 64 3.2 3.2 0.00 0.00 0.00 94 1014.3
20260905102942 23 65 0.0 0.0 0.00 0.00 0.00 94 1014.1
20260905102438 23 65 0.0 0.0 0.00 0.00 0.00 94 1014.1
20260905101933 23 44 4.8 4.8 0.00 0.00 0.00 95 1014.3
20260905101431 23 4 4.8 4.8 0.00 0.00 0.00 95 1014.0
20260905100926 23 4 1.6 1.6 0.00 0.00 0.00 95 1013.9
20260905100422 23 4 1.6 3.2 0.00 0.00 0.00 95 1014.1
20260905095921 23 6 0.0 0.0 0.00 0.00 0.00 94 1014.1
20260905095421 23 6 0.0 0.0 0.00 0.00 0.00 94 1014.1
20260905094921 23 6 0.0 0.0 0.00 0.00 0.00 95 1014.0
20260905094417 23 6 1.6 4.8 0.00 0.00 0.00 95 1013.8
20260905093916 23 255 0.0 0.0 0.00 0.00 0.00 94 1013.5
20260905093412 23 254 0.0 0.0 0.00 0.00 0.00 94 1013.5
20260905092907 23 254 0.0 0.0 0.00 0.00 0.00 94 1013.4
20260905092402 23 254 0.0 0.0 0.00 0.00 0.00 94 1013.4
20260905091857 23 254 0.0 0.0 0.00 0.00 0.00 95 1013.5
20260905091356 23 254 0.0 0.0 0.00 0.00 0.00 95 1013.3
20260905090855 23 254 0.0 0.0 0.00 0.00 0.00 95 1013.4
20260905090351 23 254 0.0 0.0 0.00 0.00 0.00 94 1013.4
20260905085850 23 254 0.0 0.0 0.00 0.00 0.00 94 1013.4
20260905085345 23 254 0.0 0.0 0.00 0.00 0.00 95 1013.4
20260905084841 23 254 0.0 0.0 0.00 0.00 0.00 95 1013.5
20260905084340 23 254 0.0 0.0 0.00 0.00 0.00 95 1013.3
20260905083835 23 254 0.0 0.0 0.00 0.00 0.00 95 1013.2
20260905083331 23 254 0.0 0.0 0.00 0.00 0.00 95 1013.6
20260905082826 23 254 0.0 0.0 0.00 0.00 0.00 95 1013.2
20260905082323 23 254 0.0 0.0 0.00 0.00 0.00 95 1013.3
20260905081822 23 254 0.0 0.0 0.00 0.00 0.00 95 1013.3
20260905081318 23 254 0.0 0.0 0.00 0.00 0.00 95 1013.5
20260905080817 23 254 0.0 0.0 0.00 0.00 0.00 95 1013.5
20260905080312 23 254 0.0 0.0 0.00 0.00 0.00 95 1013.5
20260905075810 23 254 0.0 0.0 0.00 0.00 0.00 95 1013.4
20260905075310 23 254 0.0 0.0 0.00 0.00 0.00 95 1013.7
20260905074809 23 254 0.0 0.0 0.00 0.00 0.00 95 1013.7
20260905074306 23 254 0.0 0.0 0.00 0.00 0.00 95 1013.6
20260905073801 23 254 0.0 0.0 0.00 0.00 0.00 94 1013.6
20260905073256 23 254 1.6 1.6 0.00 0.00 0.00 94 1013.8
20260905072755 23 254 0.0 0.0 0.00 0.00 0.00 94 1013.7
20260905072251 23 254 0.0 0.0 0.00 0.00 0.00 94 1013.9
20260905071748 23 254 0.0 0.0 0.00 0.00 0.00 94 1013.7
20260905071243 23 254 0.0 0.0 0.00 0.00 0.00 93 1014.1
20260905070738 24 254 0.0 0.0 0.00 0.00 0.00 93 1014.0
20260905070234 24 254 0.0 0.0 0.00 0.00 0.00 94 1013.7
20260905065733 23 254 0.0 0.0 0.00 0.00 0.00 95 1014.0
20260905065227 23 255 0.0 0.0 0.00 0.00 0.00 95 1013.9
20260905064722 23 255 0.0 0.0 0.00 0.00 0.00 94 1014.1
20260905064218 23 255 0.0 0.0 0.00 0.00 0.00 94 1014.3
20260905063716 24 255 0.0 0.0 0.00 0.00 0.00 93 1014.4
20260905063213 24 255 0.0 0.0 0.00 0.00 0.00 94 1014.2
20260905062708 24 255 0.0 0.0 0.00 0.00 0.00 94 1014.4
20260905062208 23 255 0.0 0.0 0.00 0.00 0.00 95 1014.3
20260905061707 23 255 0.0 1.6 0.00 0.00 0.00 95 1014.4
20260905061202 23 255 0.0 0.0 0.00 0.00 0.00 94 1014.5
20260905060657 23 255 0.0 0.0 0.00 0.00 0.00 94 1014.4
20260905060154 23 255 0.0 0.0 0.00 0.00 0.00 94 1014.6
20260905055652 23 255 0.0 0.0 0.00 0.00 0.00 95 1014.6
20260905055148 23 255 0.0 0.0 0.00 0.00 0.00 94 1014.3
20260905054643 23 255 0.0 0.0 0.00 0.00 0.00 94 1014.5
20260905054139 23 255 0.0 0.0 0.00 0.00 0.00 94 1014.5
20260905053638 24 255 0.0 0.0 0.00 0.00 0.00 94 1014.8
20260905053133 24 255 0.0 0.0 0.00 0.00 0.00 94 1014.8
20260905052633 24 255 0.0 0.0 0.00 0.00 0.00 94 1014.5
20260905052128 24 255 0.0 0.0 0.00 0.00 0.00 93 1014.8
20260905051623 24 255 0.0 0.0 0.00 0.00 0.00 93 1014.7
20260905051120 24 255 0.0 0.0 0.00 0.00 0.00 93 1014.7
20260905050616 24 255 0.0 0.0 0.00 0.00 0.00 94 1014.9
20260905050112 24 255 0.0 0.0 0.00 0.00 0.00 93 1014.7
20260905045612 24 255 0.0 0.0 0.00 0.00 0.00 93 1014.9
20260905045108 24 255 0.0 0.0 0.00 0.00 0.00 93 1014.8
20260905044607 24 255 0.0 0.0 0.00 0.00 0.00 94 1014.8
20260905044102 24 255 0.0 0.0 0.00 0.00 0.00 94 1015.0
20260905043601 24 255 0.0 1.6 0.00 0.00 0.00 93 1014.7
20260905043057 24 255 0.0 0.0 0.00 0.00 0.00 93 1015.0
20260905042555 25 255 0.0 0.0 0.00 0.00 0.00 93 1015.0
20260905042051 25 255 0.0 0.0 0.00 0.00 0.00 93 1015.2
20260905041546 25 255 0.0 0.0 0.00 0.00 0.00 93 1015.0
20260905041041 25 255 0.0 0.0 0.00 0.00 0.00 93 1014.9
20260905040541 25 255 1.6 1.6 0.00 0.00 0.00 93 1014.9
20260905040039 25 255 1.6 1.6 0.00 0.00 0.00 93 1014.9
20260905035535 25 255 0.0 0.0 0.00 0.00 0.00 93 1014.8
20260905035032 25 255 0.0 0.0 0.00 0.00 0.00 93 1014.8
20260905034528 25 255 0.0 0.0 0.00 0.00 0.00 93 1014.8
20260905034027 25 255 0.0 0.0 0.00 0.00 0.00 93 1014.9
20260905033526 25 255 0.0 0.0 0.00 0.00 0.00 93 1015.0
20260905033023 25 255 0.0 0.0 0.00 0.00 0.00 93 1015.2
20260905032518 25 255 0.0 0.0 0.00 0.00 0.00 93 1014.9
20260905032013 25 255 0.0 0.0 0.00 0.00 0.00 92 1015.0
20260905031509 25 255 1.6 1.6 0.00 0.00 0.00 91 1014.8
20260905031008 25 255 0.0 0.0 0.00 0.00 0.00 91 1014.9
20260905030504 25 255 0.0 0.0 0.00 0.00 0.00 90 1015.1
20260905030003 26 255 0.0 0.0 0.00 0.00 0.00 90 1014.9
20260905025458 26 255 0.0 0.0 0.00 0.00 0.00 91 1015.0
20260905024955 25 255 0.0 0.0 0.00 0.00 0.00 91 1015.0
20260905024455 25 255 0.0 0.0 0.00 0.00 0.00 91 1014.9
20260905023950 26 255 0.0 1.6 0.00 0.00 0.00 90 1014.9
20260905023445 26 255 0.0 0.0 0.00 0.00 0.00 89 1014.8
20260905022944 26 255 0.0 0.0 0.00 0.00 0.00 88 1014.8
20260905022439 27 255 0.0 0.0 0.00 0.00 0.00 85 1014.9
20260905021935 27 255 0.0 0.0 0.00 0.00 0.00 79 1014.6
20260905021434 27 255 1.6 1.6 0.00 0.00 0.00 80 1014.7
20260905020930 26 255 1.6 1.6 0.00 0.00 0.00 81 1014.6
20260905020430 27 255 0.0 0.0 0.00 0.00 0.00 81 1014.7
20260905015929 27 255 0.0 0.0 0.00 0.00 0.00 83 1014.5
20260905015428 27 255 0.0 0.0 0.00 0.00 0.00 76 1014.8
20260905014927 27 255 0.0 1.6 0.00 0.00 0.00 78 1014.6
20260905014423 27 255 0.0 1.6 0.00 0.00 0.00 80 1014.6
20260905013918 27 255 0.0 0.0 0.00 0.00 0.00 85 1014.5
20260905013415 27 255 0.0 0.0 0.00 0.00 0.00 85 1014.5
20260905012909 27 255 0.0 0.0 0.00 0.00 0.00 82 1014.5
20260905012405 27 255 0.0 0.0 0.00 0.00 0.00 82 1014.3
20260905011902 27 255 0.0 0.0 0.00 0.00 0.00 83 1014.3
20260905011356 27 255 0.0 0.0 0.00 0.00 0.00 77 1014.3
20260905010853 27 255 0.0 0.0 0.00 0.00 0.00 78 1014.1
20260905010353 28 255 0.0 0.0 0.00 0.00 0.00 76 1014.1
20260905005849 28 255 0.0 0.0 0.00 0.00 0.00 74 1014.0
20260905005344 28 255 0.0 0.0 0.00 0.00 0.00 76 1014.1
20260905004840 28 255 0.0 0.0 0.00 0.00 0.00 75 1014.2
20260905004339 29 255 0.0 0.0 0.00 0.00 0.00 73 1014.2